TimeCST,TemperatureF,Dew PointF,Humidity,Sea Level PressureIn,VisibilityMPH,Wind Direction,Wind SpeedMPH,Gust SpeedMPH,PrecipitationIn,Events,Conditions,WindDirDegrees,DateUTC
12:15 AM,35.2,32.2,89,29.75,10.0,Calm,Calm,-,N/A,,Overcast,0,2012-12-17 06:15:00
12:35 AM,35.2,32.2,89,29.75,10.0,Calm,Calm,-,N/A,,Overcast,0,2012-12-17 06:35:00
12:55 AM,35.2,32.2,89,29.75,7.0,West,4.6,-,N/A,,Overcast,280,2012-12-17 06:55:00
1:15 AM,35.2,32.5,90,29.75,7.0,NW,4.6,-,N/A,,Overcast,310,2012-12-17 07:15:00
1:35 AM,34.7,32.4,91,29.75,7.0,WNW,4.6,-,N/A,,Overcast,300,2012-12-17 07:35:00
1:55 AM,34.7,32.5,92,29.75,5.0,NW,3.5,-,N/A,,Overcast,310,2012-12-17 07:55:00
2:15 AM,34.3,32.4,92,29.73,5.0,NNW,8.1,-,N/A,,Overcast,330,2012-12-17 08:15:00
2:35 AM,34.3,32.2,92,29.74,7.0,NW,4.6,-,N/A,,Overcast,310,2012-12-17 08:35:00
2:55 AM,34.0,32.0,92,29.73,5.0,NW,5.8,-,N/A,,Overcast,320,2012-12-17 08:55:00
3:15 AM,33.6,32.0,94,29.74,5.0,NNW,5.8,-,N/A,,Overcast,340,2012-12-17 09:15:00
3:35 AM,33.4,32.0,94,29.74,5.0,Calm,Calm,-,N/A,,Overcast,0,2012-12-17 09:35:00
3:55 AM,33.4,32.0,94,29.75,5.0,West,4.6,-,N/A,,Overcast,280,2012-12-17 09:55:00
4:15 AM,33.3,32.0,95,29.74,5.0,Calm,Calm,-,N/A,,Overcast,0,2012-12-17 10:15:00
4:35 AM,33.3,32.0,95,29.74,5.0,Calm,Calm,-,N/A,,Overcast,0,2012-12-17 10:35:00
4:55 AM,33.3,32.0,95,29.73,4.0,Calm,Calm,-,N/A,,Overcast,0,2012-12-17 10:55:00
5:15 AM,33.4,32.0,94,29.73,4.0,North,4.6,-,N/A,,Overcast,360,2012-12-17 11:15:00
5:35 AM,33.3,32.0,95,29.73,4.0,North,4.6,-,N/A,,Overcast,10,2012-12-17 11:35:00
5:55 AM,33.1,32.0,96,29.73,4.0,North,5.8,-,N/A,,Overcast,10,2012-12-17 11:55:00
6:15 AM,33.1,32.0,96,29.74,5.0,North,3.5,-,N/A,,Overcast,350,2012-12-17 12:15:00
6:35 AM,32.9,31.6,95,29.73,5.0,Calm,Calm,-,N/A,,Overcast,0,2012-12-17 12:35:00
6:55 AM,32.9,31.8,96,29.73,5.0,North,3.5,-,N/A,,Overcast,360,2012-12-17 12:55:00
7:15 AM,32.2,31.3,96,29.73,5.0,Calm,Calm,-,N/A,,Overcast,0,2012-12-17 13:15:00
7:35 AM,32.2,31.5,97,29.72,4.0,NNW,3.5,-,N/A,,Overcast,340,2012-12-17 13:35:00
7:55 AM,32.4,31.6,97,29.72,3.0,Calm,Calm,-,N/A,,Overcast,0,2012-12-17 13:55:00
8:15 AM,32.5,31.8,97,29.73,3.0,NW,4.6,-,N/A,,Overcast,310,2012-12-17 14:15:00
8:35 AM,32.4,32.0,99,29.73,2.5,NW,4.6,-,N/A,,Overcast,310,2012-12-17 14:35:00
8:55 AM,32.4,32.0,99,29.73,2.5,NW,4.6,-,N/A,,Overcast,310,2012-12-17 14:55:00
9:15 AM,32.5,31.8,97,29.74,2.5,NNW,3.5,-,N/A,,Overcast,340,2012-12-17 15:15:00
9:35 AM,32.2,32.0,99,29.74,2.5,North,3.5,-,N/A,,Overcast,10,2012-12-17 15:35:00
9:55 AM,32.4,31.8,98,29.74,2.5,North,3.5,-,N/A,,Overcast,350,2012-12-17 15:55:00
10:15 AM,32.4,31.6,97,29.74,3.0,Calm,Calm,-,N/A,,Overcast,0,2012-12-17 16:15:00
10:35 AM,32.4,31.6,97,29.73,3.0,Calm,Calm,-,N/A,,Overcast,0,2012-12-17 16:35:00
10:55 AM,32.9,31.8,96,29.73,3.0,Calm,Calm,-,N/A,,Overcast,0,2012-12-17 16:55:00
11:15 AM,32.9,31.8,96,29.73,3.0,Calm,Calm,-,N/A,,Overcast,0,2012-12-17 17:15:00
11:35 AM,32.9,32.0,96,29.71,3.0,Calm,Calm,-,N/A,,Overcast,0,2012-12-17 17:35:00
11:55 AM,32.9,31.8,96,29.71,3.0,Calm,Calm,-,N/A,,Overcast,0,2012-12-17 17:55:00
12:15 PM,33.3,31.8,94,29.70,4.0,NW,3.5,-,N/A,,Overcast,310,2012-12-17 18:15:00
12:35 PM,33.1,32.0,96,29.70,3.0,West,4.6,-,N/A,,Overcast,280,2012-12-17 18:35:00
12:55 PM,33.4,32.0,94,29.70,3.0,NW,4.6,-,N/A,,Overcast,310,2012-12-17 18:55:00
1:15 PM,33.3,32.0,95,29.69,3.0,WNW,4.6,-,N/A,,Overcast,300,2012-12-17 19:15:00
1:35 PM,33.3,32.0,95,29.68,2.5,NW,6.9,-,N/A,,Overcast,310,2012-12-17 19:35:00
1:55 PM,33.3,32.0,95,29.68,2.0,NNW,5.8,-,N/A,,Overcast,330,2012-12-17 19:55:00
2:15 PM,33.3,32.0,95,29.68,2.0,NNW,8.1,-,N/A,,Overcast,330,2012-12-17 20:15:00
2:35 PM,33.3,32.0,95,29.68,3.0,NNW,5.8,-,N/A,,Overcast,340,2012-12-17 20:35:00
2:55 PM,33.3,32.0,95,29.68,2.5,NNW,6.9,-,N/A,,Overcast,340,2012-12-17 20:55:00
3:15 PM,33.1,32.0,96,29.68,3.0,NW,4.6,-,N/A,,Overcast,310,2012-12-17 21:15:00
3:35 PM,33.1,32.0,96,29.68,3.0,Calm,Calm,-,N/A,,Overcast,0,2012-12-17 21:35:00
3:55 PM,33.3,31.8,94,29.69,4.0,NNW,3.5,-,N/A,,Overcast,330,2012-12-17 21:55:00
6:35 PM,32.9,31.5,94,29.72,5.0,West,4.6,-,N/A,,Overcast,260,2012-12-18 00:35:00
6:55 PM,32.9,31.5,94,29.72,5.0,West,4.6,-,N/A,,Overcast,270,2012-12-18 00:55:00
7:15 PM,32.9,31.3,94,29.72,5.0,West,4.6,-,N/A,,Overcast,280,2012-12-18 01:15:00
7:35 PM,32.9,31.5,94,29.73,5.0,West,5.8,-,N/A,,Overcast,270,2012-12-18 01:35:00
7:55 PM,32.9,31.8,96,29.74,4.0,West,4.6,-,N/A,,Overcast,270,2012-12-18 01:55:00
8:15 PM,32.5,31.5,96,29.73,5.0,WNW,4.6,-,N/A,,Overcast,290,2012-12-18 02:15:00
8:35 PM,32.4,31.3,96,29.72,4.0,Calm,Calm,-,N/A,,Overcast,0,2012-12-18 02:35:00
8:55 PM,32.4,31.1,95,29.73,5.0,SW,4.6,-,N/A,,Overcast,230,2012-12-18 02:55:00
9:15 PM,32.5,31.6,96,29.73,4.0,West,3.5,-,N/A,,Overcast,260,2012-12-18 03:15:00
9:35 PM,32.9,31.5,94,29.73,5.0,WSW,3.5,-,N/A,,Overcast,240,2012-12-18 03:35:00
9:55 PM,32.4,31.1,95,29.73,5.0,West,3.5,-,N/A,,Overcast,260,2012-12-18 03:55:00
10:15 PM,32.5,31.1,94,29.74,5.0,Calm,Calm,-,N/A,,Overcast,0,2012-12-18 04:15:00
10:35 PM,32.4,31.1,95,29.74,5.0,SSW,3.5,-,N/A,,Overcast,200,2012-12-18 04:35:00
10:55 PM,32.5,31.1,94,29.74,5.0,SW,3.5,-,N/A,,Overcast,220,2012-12-18 04:55:00
11:15 PM,32.2,30.9,95,29.74,5.0,SSW,3.5,-,N/A,,Overcast,200,2012-12-18 05:15:00
11:35 PM,32.0,30.7,95,29.75,4.0,South,3.5,-,N/A,,Overcast,190,2012-12-18 05:35:00
11:55 PM,32.0,30.4,94,29.75,4.0,South,3.5,-,N/A,,Overcast,190,2012-12-18 05:55:00